[[{"header":{"parameterUnit":"m.s-1","parameterCategory":1,"la1":30.2992,"la2":30.254,"lo1":-89.0895,"lo2":-89.0443,"dy":0.0025,"dx":0.0025,"nx":19,"ny":19,"refTime":"2026-05-19T03:00:00:Z","depth":0,"parameterNumber":2,"parameterNumberName":"U-component_of_WINDS"},"data":[0,0,0,-1.161,-1.1611,-1.1618,-1.1618,-1.1641,-1.1641,0,0,0,0,0,0,0,0,0,0,0,-1.1615,-1.1616,-1.161,-1.1611,-1.1619,-1.1618,-1.1641,-1.1641,0,0,0,0,0,0,0,0,0,0,0,-1.1615,-1.1616,-1.1616,-1.1611,-1.1619,-1.1618,-1.1641,-1.163,0,0,0,0,0,0,0,0,0,0,-1.1621,-1.1632,-1.1616,-1.1616,-1.1611,-1.1619,-1.1618,-1.163,-1.1631,-1.1642,0,-1.1654,0,-1.1648,-1.1643,-1.1643,0,0,0,-1.1605,-1.1631,-1.1627,-1.1616,-1.1611,-1.1619,-1.1614,-1.163,-1.1632,-1.1644,-1.1654,-1.1655,-1.1648,-1.1643,-1.1644,-1.1727,-1.1727,0,0,-1.1605,-1.1621,-1.1626,-1.1628,-1.1628,-1.1613,-1.1614,-1.1631,-1.1643,-1.1654,-1.1655,-1.1649,-1.1644,-1.1644,-1.1726,-1.1727,0,0,0,-1.1607,-1.1621,-1.1615,-1.1628,-1.1628,-1.1614,-1.1614,-1.1642,-1.1639,-1.1655,-1.1649,-1.1644,-1.1644,-1.1725,-1.1726,-1.1773,0,0,0,-1.1607,-1.1622,-1.1616,-1.1625,-1.1628,-1.1635,-1.1626,-1.1638,-1.164,-1.1649,-1.1644,-1.1645,-1.1725,-1.1726,-1.177,-1.1792,0,0,0,-1.1612,-1.1622,-1.1626,-1.1626,-1.163,-1.1635,-1.1632,-1.1638,-1.1636,-1.1643,-1.1645,-1.1724,-1.1726,-1.1767,-1.1787,-1.1818,0,0,0,-1.1623,-1.1667,-1.1627,-1.1674,-1.163,-1.1663,-1.1632,-1.1656,-1.1668,-1.1644,-1.1725,-1.1726,-1.1767,-1.1785,-1.1815,-1.1845,-1.1859,0,0,-1.1687,-1.1676,-1.1702,-1.1666,-1.1711,-1.1661,-1.1712,-1.1708,-1.1695,-1.1717,-1.1719,-1.1771,-1.1787,-1.1817,-1.1936,-1.1947,0,0,0,-1.1728,-1.1747,-1.1756,-1.1767,-1.1766,-1.1766,-1.1753,-1.1751,-1.1769,-1.171,-1.179,-1.1799,-1.1816,-1.183,-1.1839,-1.1853,-1.1734,-1.1733,-1.1733,-1.1841,-1.1822,-1.1864,-1.1846,-1.1858,-1.1845,-1.1853,-1.1848,-1.1825,-1.1845,-1.1851,-1.1925,-1.1942,-1.1949,-1.1963,-1.1866,-1.1866,-1.1866,-1.1866,-1.1933,-1.1957,-1.1926,-1.1956,-1.1936,-1.1961,-1.195,-1.1933,-1.1953,-1.1919,-1.1933,-1.1896,-1.1962,-1.1973,-1.187,-1.1869,-1.1869,-1.1868,-1.1868,-1.2004,-1.2012,-1.201,-1.2026,-1.204,-1.2021,-1.2042,-1.2023,-1.2005,-1.2019,-1.2023,-1.2022,-1.2018,-1.2023,-1.2023,-1.2023,-1.2023,-1.2024,-1.2024,-1.2078,-1.2074,-1.2094,-1.2097,-1.2103,-1.2107,-1.2095,-1.21,-1.21,-1.2085,-1.2084,-1.2059,-1.1972,-1.195,-1.2028,-1.2027,-1.2026,-1.2026,-1.2026,-1.2177,-1.2152,-1.2183,-1.2188,-1.219,-1.2206,-1.2182,-1.2193,-1.2195,-1.2206,-1.2179,-1.2118,-1.2104,-1.2096,-1.2078,-1.2183,-1.2183,-1.2183,-1.2183,-1.2236,-1.2228,-1.2255,-1.2265,-1.2273,-1.2255,-1.2291,-1.2282,-1.2269,-1.2269,-1.2251,-1.2226,-1.2219,-1.2209,-1.2199,-1.2181,-1.231,-1.231,-1.231,-1.2295,-1.2287,-1.2321,-1.2308,-1.2308,-1.2309,-1.2342,-1.2355,-1.2336,-1.2315,-1.2268,-1.2263,-1.2221,-1.2209,-1.2186,-1.217,-1.2138,0,0]},{"header":{"parameterUnit":"m.s-1","parameterCategory":1,"la1":30.2992,"la2":30.254,"lo1":-89.0895,"lo2":-89.0443,"dy":0.0025,"dx":0.0025,"nx":19,"ny":19,"refTime":"2026-05-19T03:00:00:Z","depth":0,"parameterNumber":3,"parameterNumberName":"V-component_of_WINDS"},"data":[0,0,0,-0.3653,-0.3654,-0.3669,-0.3669,-0.3681,-0.3681,0,0,0,0,0,0,0,0,0,0,0,-0.3645,-0.3645,-0.3653,-0.3654,-0.3669,-0.3669,-0.3681,-0.3681,0,0,0,0,0,0,0,0,0,0,0,-0.3645,-0.3645,-0.3644,-0.3654,-0.3668,-0.3669,-0.3681,-0.3673,0,0,0,0,0,0,0,0,0,0,-0.3659,-0.3647,-0.3645,-0.3644,-0.3654,-0.3668,-0.3669,-0.3672,-0.3673,-0.3672,0,-0.3669,0,-0.3675,-0.3682,-0.3682,0,0,0,-0.3657,-0.3646,-0.3654,-0.3644,-0.3654,-0.3668,-0.3663,-0.3673,-0.3674,-0.3673,-0.3669,-0.367,-0.3676,-0.3682,-0.3682,-0.3661,-0.3661,0,0,-0.3656,-0.3645,-0.3653,-0.3654,-0.3651,-0.3662,-0.3663,-0.3673,-0.3669,-0.3669,-0.367,-0.3676,-0.3682,-0.3682,-0.3661,-0.3661,0,0,0,-0.3651,-0.3644,-0.3652,-0.3653,-0.3657,-0.3663,-0.3664,-0.3669,-0.3672,-0.3671,-0.3676,-0.3682,-0.3682,-0.3661,-0.3661,-0.3636,0,0,0,-0.3651,-0.3642,-0.3652,-0.3645,-0.3656,-0.3663,-0.3658,-0.3671,-0.3673,-0.3676,-0.3682,-0.3682,-0.3662,-0.3661,-0.3638,-0.3627,0,0,0,-0.3645,-0.3641,-0.3642,-0.3644,-0.365,-0.3663,-0.3667,-0.3672,-0.3676,-0.3682,-0.3682,-0.3662,-0.3661,-0.3639,-0.3629,-0.3617,0,0,0,-0.3636,-0.3621,-0.3641,-0.3626,-0.365,-0.3647,-0.3667,-0.3666,-0.3668,-0.3682,-0.3662,-0.3661,-0.3639,-0.363,-0.3618,-0.3605,-0.3598,0,0,-0.3611,-0.3617,-0.361,-0.3628,-0.3619,-0.3646,-0.3633,-0.3647,-0.3658,-0.3659,-0.3659,-0.3637,-0.3629,-0.3617,-0.3567,-0.3562,0,0,0,-0.3598,-0.3592,-0.3592,-0.3593,-0.3602,-0.3609,-0.3625,-0.3629,-0.3631,-0.3656,-0.3631,-0.3626,-0.362,-0.3614,-0.3609,-0.3604,-0.3658,-0.3658,-0.3658,-0.3546,-0.3561,-0.3548,-0.3564,-0.3565,-0.3581,-0.3583,-0.3592,-0.3607,-0.3601,-0.3601,-0.3569,-0.3562,-0.3558,-0.3553,-0.3596,-0.3596,-0.3596,-0.3596,-0.351,-0.3504,-0.3523,-0.3518,-0.3533,-0.3529,-0.3544,-0.3554,-0.3553,-0.357,-0.3565,-0.3582,-0.3552,-0.3548,-0.3594,-0.3594,-0.3595,-0.3595,-0.3595,-0.3478,-0.3477,-0.3482,-0.3485,-0.3485,-0.3502,-0.3499,-0.3514,-0.3527,-0.3522,-0.3524,-0.3524,-0.3526,-0.3522,-0.3522,-0.3522,-0.3522,-0.3522,-0.3522,-0.3441,-0.3448,-0.3444,-0.3451,-0.3453,-0.3458,-0.3473,-0.3476,-0.3483,-0.3493,-0.3493,-0.3508,-0.3547,-0.3555,-0.352,-0.352,-0.352,-0.3521,-0.3521,-0.3398,-0.341,-0.3403,-0.3405,-0.3415,-0.3413,-0.3432,-0.3435,-0.344,-0.3438,-0.3454,-0.348,-0.3488,-0.3492,-0.3499,-0.3451,-0.3451,-0.3451,-0.3451,-0.337,-0.3375,-0.3371,-0.3373,-0.3377,-0.3392,-0.3383,-0.3395,-0.3409,-0.3413,-0.3422,-0.3433,-0.3436,-0.3443,-0.3447,-0.3454,-0.3396,-0.3396,-0.3396,-0.3344,-0.335,-0.334,-0.3353,-0.3361,-0.3368,-0.336,-0.3362,-0.3381,-0.3394,-0.3416,-0.3418,-0.3436,-0.3442,-0.3455,-0.3462,-0.3476,0,0]}]]